[[{"header":{"parameterUnit":"m.s-1","parameterCategory":1,"la1":30.2991,"la2":30.254,"lo1":-89.0895,"lo2":-89.0444,"dx":0.0017,"dy":0.0017,"nx":28,"ny":28,"refTime":"2023-02-06T15:00:00:Z","depth":0,"parameterNumber":2,"parameterNumberName":"U-component_of_WINDS"},"data":[0,0,0,0,0,0,0,0,0,0,0,0,0,0,0,0,0,0,0,0,0,0,0,0,0,0,0,0,0,0,0,0,0,0,0,0,0,0,0,0,0,0,0,0,0,0,0,0,0,0,0,0,0,0,0,0,0,0,-3.8744,-3.8745,0,-3.8789,-3.8789,-3.879,-3.8718,-3.8715,-3.8713,-3.871,-3.8754,-3.8757,-3.876,0,0,0,0,0,0,0,0,0,0,0,0,0,-3.8597,-3.86,-3.8744,-3.8745,-3.8746,-3.8789,-3.8789,-3.879,-3.8718,-3.8715,-3.8712,-3.8709,-3.8752,-3.8756,-3.8761,0,0,0,0,0,0,0,0,0,0,0,0,0,-3.8653,-3.8601,-3.8744,-3.8715,-3.8713,-3.8788,-3.8789,-3.879,-3.8719,-3.8715,-3.8711,-3.8708,-3.8751,-3.8756,-3.8761,-3.8867,0,0,-3.8777,-3.8779,0,0,0,0,0,0,0,0,-3.865,-3.8659,-3.8719,-3.8717,-3.8715,-3.8744,-3.8753,-3.8816,-3.872,-3.8716,-3.871,-3.8706,-3.8753,-3.8758,-3.8774,-3.8869,-3.887,-3.8777,-3.878,-3.8783,-3.8784,0,0,0,0,0,0,0,-3.8646,-3.8656,-3.8762,-3.872,-3.8717,-3.8699,-3.8703,-3.8764,-3.8755,-3.8716,-3.8711,-3.8718,-3.8751,-3.8769,-3.8775,-3.8871,-3.8777,-3.8782,-3.8785,-3.8787,-3.9055,-3.9059,0,0,0,0,0,0,-3.8646,-3.8653,-3.876,-3.8763,-3.8673,-3.8705,-3.8709,-3.8738,-3.8754,-3.8753,-3.8721,-3.8714,-3.8762,-3.8769,-3.8776,-3.8901,-3.8783,-3.8787,-3.879,-3.9051,-3.9056,-3.9061,0,0,0,0,0,0,-3.8643,-3.8656,-3.8759,-3.8707,-3.8719,-3.8711,-3.8745,-3.8741,-3.8759,-3.8757,-3.8755,-3.8741,-3.876,-3.8769,-3.8845,-3.8901,-3.879,-3.8794,-3.9047,-3.9053,-3.9059,-3.9151,0,0,0,0,0,0,-3.8639,-3.8656,-3.8696,-3.8708,-3.8722,-3.8827,-3.8748,-3.8745,-3.8768,-3.876,-3.8776,-3.8775,-3.8758,-3.8838,-3.885,-3.8906,-3.8798,-3.9042,-3.9049,-3.9057,-3.9143,-3.916,-3.9174,0,0,0,0,0,-3.8634,-3.8719,-3.8698,-3.8711,-3.8772,-3.8831,-3.8838,-3.8817,-3.8773,-3.8813,-3.8813,-3.8774,-3.8894,-3.8846,-3.886,-3.8918,-3.9038,-3.9047,-3.9056,-3.9136,-3.9157,-3.9174,0,0,0,0,0,0,-3.8712,-3.872,-3.8697,-3.8789,-3.881,-3.8819,-3.8868,-3.8839,-3.8873,-3.8863,-3.8836,-3.884,-3.8922,-3.8928,-3.8875,-3.9022,-3.8958,-3.897,-3.9015,-3.9034,-3.9049,-3.9045,-3.8803,0,0,0,0,0,-3.874,-3.8788,-3.8793,-3.8873,-3.8885,-3.8876,-3.89,-3.8883,-3.8903,-3.8911,-3.8916,-3.8936,-3.8978,-3.9007,-3.9045,-3.9144,-3.9147,-3.9191,-3.9207,-3.922,-3.923,-3.9283,-3.9303,-3.9091,-3.9091,-3.909,0,0,-3.8798,-3.8809,-3.884,-3.8889,-3.8903,-3.8953,-3.8883,-3.8938,-3.8975,-3.8919,-3.8992,-3.8996,-3.9018,-3.9106,-3.9145,-3.9113,-3.929,-3.9231,-3.9241,-3.9245,-3.9295,-3.9315,-3.9333,-3.9097,-3.9096,-3.9095,0,0,-3.8929,-3.8942,-3.9011,-3.9027,-3.905,-3.9044,-3.9061,-3.9074,-3.9076,-3.9148,-3.9108,-3.9151,-3.9224,-3.9241,-3.9259,-3.94,-3.9366,-3.9413,-3.9493,-3.9546,-3.9563,-3.9577,-3.9627,-3.9646,-3.9424,-3.9424,-3.9425,0,-3.8998,-3.9072,-3.905,-3.9109,-3.9132,-3.9085,-3.9155,-3.9171,-3.9206,-3.9222,-3.9187,-3.9279,-3.9289,-3.9382,-3.9416,-3.9433,-3.9451,-3.9411,-3.9562,-3.9577,-3.959,-3.9638,-3.9656,-3.943,-3.9429,-3.9429,-3.9428,0,-3.9155,-3.9208,-3.9261,-3.9296,-3.9325,-3.9389,-3.9377,-3.9409,-3.939,-3.9387,-3.9462,-3.9474,-3.9515,-3.9536,-3.9517,-3.9626,-3.9605,-3.9567,-3.9502,-3.9616,-3.966,-3.9678,-3.9438,-3.9436,-3.9434,-3.9433,0,0,-3.9334,-3.9359,-3.9379,-3.9395,-3.9418,-3.9458,-3.952,-3.9561,-3.9589,-3.9615,-3.9666,-3.9731,-3.9696,-3.9717,-3.9699,-3.9746,-3.9857,-3.9701,-3.9701,-3.9729,-3.9978,-4.0006,-4.0028,-3.9835,-3.9838,-3.9841,-3.9976,0,-3.9464,-3.9573,-3.9556,-3.966,-3.9708,-3.9666,-3.9721,-3.9741,-3.9741,-3.9781,-3.9781,-3.9827,-3.9777,-3.9789,-3.9833,-3.9834,-3.9906,-3.9824,-3.9882,-3.9884,-3.9877,-4.0051,-4.008,-4.0207,-3.9993,-3.9996,-3.9998,0,-3.963,-3.9664,-3.9773,-3.9791,-3.981,-3.9859,-3.9896,-3.9936,-3.9958,-3.9955,-3.998,-3.9955,-4.0017,-3.9954,-4.0039,-3.9984,-4.0007,-4.0011,-4.0015,-4.0019,-3.9947,-4.0058,-4.0247,-4.0266,-4.0025,-4.0023,-4.0021,0,-3.9749,-3.9822,-3.9897,-3.9912,-3.9934,-3.997,-3.9981,-4.0,-4.0026,-4.0058,-4.0075,-4.0114,-4.0136,-4.0167,-4.0153,-4.0108,-4.0241,-4.0176,-4.024,-4.024,-4.0269,-4.0267,-4.0463,-4.0285,-4.0285,-4.0285,-4.0284,0,-3.9895,-3.9964,-3.9951,-3.9997,-4.0073,-4.0054,-4.0129,-4.0135,-4.0153,-4.0199,-4.0165,-4.021,-4.0189,-4.0232,-4.0222,-4.0295,-4.0305,-4.0304,-4.03,-4.0306,-4.0306,-4.032,-4.031,-4.029,-4.0289,-4.0288,-4.0287,0,-4.004,-4.0034,-4.0114,-4.0129,-4.0135,-4.019,-4.0203,-4.0246,-4.0244,-4.0304,-4.0316,-4.0313,-4.0363,-4.0353,-4.0406,-4.04,-4.0491,-4.0476,-4.0483,-4.048,-4.0544,-4.0538,-4.0755,-4.0782,-4.0588,-4.059,-4.0591,0,-4.0133,-4.0185,-4.0207,-4.0237,-4.025,-4.0298,-4.0325,-4.0309,-4.0338,-4.0369,-4.0409,-4.0456,-4.0492,-4.0572,-4.0574,-4.0616,-4.0602,-4.0675,-4.0607,-4.0612,-4.0602,-4.0599,-4.0604,-4.0688,-4.069,-4.0692,-4.0693,0,-4.0299,-4.0294,-4.0335,-4.0376,-4.041,-4.0441,-4.0469,-4.0495,-4.0481,-4.0516,-4.0567,-4.0595,-4.0651,-4.0698,-4.0737,-4.0747,-4.0718,-4.0715,-4.0732,-4.0738,-4.074,-4.0739,-4.0519,-4.0709,-4.0708,-4.0707,-4.0706,-4.0705,-4.042,-4.0465,-4.0488,-4.0535,-4.0555,-4.0582,-4.0624,-4.0629,-4.0671,-4.0716,-4.0704,-4.0761,-4.0784,-4.0833,-4.0849,-4.0893,-4.0866,-4.089,-4.0896,-4.0903,-4.091,-4.0734,-4.09,-4.09,-4.09,-4.0899,-4.0899,0,-4.0584,-4.0597,-4.0641,-4.0682,-4.072,-4.0691,-4.0721,-4.0754,-4.0806,-4.083,-4.0867,-4.0925,-4.0971,-4.0978,-4.1021,-4.1056,-4.1044,-4.1068,-4.1064,-4.1067,-4.0932,-4.0913,-4.1077,-4.1077,-4.1077,-4.1077,-4.1077,-4.1077,-4.0673,-4.0748,-4.0746,-4.0831,-4.0843,-4.09,-4.092,-4.0945,-4.0964,-4.1032,-4.107,-4.1075,-4.1093,-4.1137,-4.1178,-4.1179,-4.1196,-4.1225,-4.1221,-4.1095,-4.1077,-4.106,-4.1042,-4.123,-4.123,-4.1352,-4.1353,-4.1354]},{"header":{"parameterUnit":"m.s-1","parameterCategory":1,"la1":30.2991,"la2":30.254,"lo1":-89.0895,"lo2":-89.0444,"dx":0.0017,"dy":0.0017,"nx":28,"ny":28,"refTime":"2023-02-06T15:00:00:Z","depth":0,"parameterNumber":3,"parameterNumberName":"V-component_of_WINDS"},"data":[0,0,0,0,0,0,0,0,0,0,0,0,0,0,0,0,0,0,0,0,0,0,0,0,0,0,0,0,0,0,0,0,0,0,0,0,0,0,0,0,0,0,0,0,0,0,0,0,0,0,0,0,0,0,0,0,0,0,1.1913,1.1913,0,1.1878,1.1878,1.1877,1.1839,1.1838,1.1838,1.1837,1.1798,1.1797,1.1797,0,0,0,0,0,0,0,0,0,0,0,0,0,1.1946,1.1946,1.1913,1.1913,1.1913,1.1878,1.1878,1.1877,1.1839,1.1838,1.1837,1.1837,1.1798,1.1797,1.1797,0,0,0,0,0,0,0,0,0,0,0,0,0,1.1923,1.1945,1.1914,1.1889,1.1887,1.1878,1.1878,1.1877,1.1839,1.1838,1.1837,1.1836,1.1798,1.1797,1.1797,1.1808,0,0,1.1794,1.1794,0,0,0,0,0,0,0,0,1.1925,1.1922,1.1893,1.1891,1.1888,1.1862,1.1875,1.1854,1.1839,1.1857,1.1837,1.1836,1.182,1.1817,1.1812,1.1806,1.1805,1.1794,1.1794,1.1793,1.1793,0,0,0,0,0,0,0,1.1926,1.1923,1.1899,1.1893,1.189,1.188,1.1876,1.1871,1.1843,1.1855,1.1852,1.1849,1.1818,1.1813,1.1811,1.1804,1.1794,1.1793,1.1793,1.1793,1.1809,1.181,0,0,0,0,0,0,1.1932,1.1925,1.19,1.1898,1.1905,1.188,1.1875,1.1871,1.1843,1.1838,1.185,1.1847,1.1815,1.1812,1.1809,1.1823,1.1793,1.1792,1.1792,1.1808,1.1809,1.181,0,0,0,0,0,0,1.1933,1.193,1.1902,1.1911,1.1907,1.188,1.1876,1.1871,1.1866,1.1839,1.1834,1.185,1.1814,1.181,1.181,1.1821,1.1792,1.1791,1.1807,1.1808,1.181,1.1849,0,0,0,0,0,0,1.1934,1.1931,1.1935,1.1911,1.1906,1.1903,1.1877,1.1871,1.1865,1.1861,1.1838,1.1833,1.1813,1.1811,1.1809,1.1819,1.1791,1.1806,1.1807,1.1809,1.1846,1.1851,1.1856,0,0,0,0,0,1.1935,1.1946,1.1935,1.1932,1.1911,1.1904,1.1901,1.1879,1.1866,1.187,1.1853,1.1834,1.182,1.1811,1.1808,1.1819,1.1805,1.1807,1.1809,1.1844,1.185,1.1856,0,0,0,0,0,0,1.1969,1.1942,1.193,1.1934,1.1922,1.1897,1.1902,1.1886,1.1876,1.1873,1.1845,1.184,1.1843,1.183,1.1821,1.183,1.181,1.1811,1.1838,1.1843,1.1848,1.1851,1.179,0,0,0,0,0,1.1978,1.1975,1.1951,1.1957,1.1951,1.1928,1.1924,1.1908,1.1894,1.1888,1.1871,1.1858,1.185,1.1846,1.1838,1.1845,1.184,1.1851,1.1855,1.1859,1.1861,1.1866,1.1871,1.1817,1.1817,1.1817,0,0,1.1994,1.1979,1.1978,1.1963,1.1952,1.195,1.1924,1.1921,1.1919,1.1887,1.1886,1.1874,1.1857,1.1861,1.1861,1.185,1.1875,1.1862,1.1865,1.1865,1.1868,1.1873,1.1878,1.1818,1.1818,1.1818,0,0,1.2023,1.2011,1.2016,1.2006,1.199,1.1975,1.1976,1.1955,1.1946,1.1945,1.1922,1.1918,1.1906,1.1896,1.1889,1.1918,1.19,1.1916,1.1939,1.1945,1.1949,1.1952,1.1964,1.1968,1.1917,1.1917,1.1918,0,1.2045,1.2041,1.2019,1.202,1.2014,1.1988,1.1992,1.1983,1.1965,1.1962,1.195,1.1937,1.1923,1.1925,1.1933,1.1927,1.1929,1.1918,1.195,1.1954,1.1957,1.1967,1.1971,1.192,1.1919,1.1919,1.1919,0,1.207,1.2068,1.2073,1.2059,1.2054,1.2056,1.2035,1.2032,1.2018,1.2004,1.2005,1.1988,1.1977,1.1976,1.1961,1.1977,1.1971,1.1955,1.1935,1.1964,1.1974,1.1978,1.1923,1.1922,1.1921,1.1921,0,0,1.2117,1.2094,1.2096,1.209,1.2072,1.207,1.2072,1.2063,1.2062,1.2051,1.2052,1.2044,1.203,1.2023,1.2006,1.2011,1.2037,1.1995,1.1994,1.2004,1.2055,1.2067,1.2072,1.2025,1.2026,1.2026,1.2057,0,1.2144,1.2146,1.2128,1.2136,1.2134,1.211,1.2112,1.2101,1.2089,1.2086,1.2072,1.2067,1.2049,1.2045,1.2048,1.2033,1.2047,1.203,1.2026,1.2026,1.2031,1.2077,1.2089,1.2119,1.206,1.2061,1.2061,0,1.2174,1.2168,1.2175,1.216,1.2158,1.216,1.2152,1.2149,1.2137,1.2128,1.2121,1.2104,1.2105,1.2086,1.2087,1.2077,1.2074,1.2067,1.2068,1.2066,1.2045,1.2077,1.2127,1.2132,1.2066,1.2066,1.2066,0,1.221,1.2202,1.2207,1.2202,1.2184,1.2186,1.2178,1.2165,1.2162,1.2155,1.2152,1.2145,1.2141,1.2135,1.2116,1.2104,1.2121,1.21,1.2114,1.2114,1.2118,1.2118,1.2168,1.2116,1.2115,1.2115,1.2115,0,1.2241,1.2247,1.2223,1.2226,1.2232,1.2212,1.2219,1.2208,1.2198,1.2198,1.2177,1.2177,1.2152,1.2151,1.2136,1.214,1.2138,1.2131,1.2127,1.2133,1.2135,1.2131,1.2129,1.2116,1.2116,1.2116,1.2116,0,1.2281,1.2265,1.2269,1.2252,1.2248,1.2254,1.2239,1.2241,1.2229,1.223,1.2229,1.2209,1.2206,1.2187,1.2179,1.2169,1.218,1.2171,1.2184,1.2182,1.2197,1.2196,1.2247,1.2254,1.2197,1.2197,1.2198,0,1.2302,1.2307,1.2291,1.2291,1.2285,1.2284,1.2281,1.2262,1.226,1.2248,1.2252,1.2248,1.2243,1.224,1.2225,1.2219,1.2211,1.2229,1.221,1.2217,1.2212,1.2213,1.2214,1.2233,1.2234,1.2235,1.2235,0,1.2342,1.2335,1.2332,1.2328,1.2326,1.2321,1.2315,1.2315,1.2294,1.2293,1.2291,1.2288,1.2281,1.2278,1.227,1.2262,1.2245,1.2242,1.2245,1.2251,1.2259,1.2256,1.2196,1.224,1.224,1.224,1.2239,1.2239,1.2373,1.2377,1.2368,1.2367,1.2361,1.2356,1.2358,1.2347,1.2345,1.234,1.2328,1.2328,1.2318,1.2307,1.23,1.23,1.229,1.2294,1.2295,1.2297,1.23,1.2259,1.2298,1.2298,1.2298,1.2297,1.2297,0,1.2413,1.2407,1.2406,1.2399,1.2399,1.2385,1.2378,1.2378,1.2379,1.2371,1.2369,1.2367,1.2364,1.235,1.2346,1.2349,1.2341,1.2348,1.2348,1.2347,1.2309,1.2307,1.2354,1.2354,1.2354,1.2354,1.2354,1.2354,1.2433,1.244,1.2432,1.2436,1.2429,1.243,1.2428,1.2424,1.2418,1.2418,1.2416,1.2408,1.2398,1.2393,1.239,1.2386,1.2386,1.2396,1.2389,1.2354,1.2349,1.2344,1.2342,1.2396,1.2396,1.2427,1.2428,1.2428]}]]